Regional Weather Roundup
Issued by NWS Upton, NY

Current Version | Previous Version | Graphics & Text | Print | Product List | Glossary Off
Versions: 1 2 3 4 5 6 7 8 9 10 11 12 13 14 15 16 17 18 19 20 21 22 23 24 25 26 27 28 29 30 31 32 33 34 35 36 37 38 39 40 41 42 43 44 45 46 47 48 49 50

018
ASUS41 KOKX 160408
RWROKX

REGIONAL WEATHER ROUNDUP
NATIONAL WEATHER SERVICE NEW YORK NY
1100 PM EST SUN JAN 15 2017

NOTE: "FAIR" INDICATES FEW OR NO CLOUDS BELOW 12,000 FEET WITH NO
SIGNIFICANT WEATHER AND/OR OBSTRUCTIONS TO VISIBILITY.

NYZ071-072-176-178-NJZ106-104-160500-
NEW YORK CITY METRO AREA

CITY           SKY/WX    TMP DP  RH WIND       PRES   REMARKS
Central Park   CLEAR     32  19  58 VRB3      30.43R
Wall St Helipt CLEAR     34  22  61 CALM      30.43R
Bronx Bot Gard NOT AVBL
LaGuardia APRT CLEAR     35  20  54 N6        30.41S WCI  30
Kennedy INTL   PTCLDY    33  18  53 N6        30.42S WCI  28
Breezy Point     N/A     32 N/A N/A NW5         N/A  WCI  27
Newark/Liberty CLEAR     32  20  61 NW5       30.42R WCI  27
Teterboro      CLEAR     30  21  69 CALM      30.42R
$$

NYZ177-179-078>081-160500-
LONG ISLAND NEW YORK

CITY           SKY/WX    TMP DP  RH WIND       PRES   REMARKS
Jones Beach      N/A     32 N/A N/A N8          N/A  WCI  25
Matinecock PT  NOT AVBL
Farmingdale    CLEAR     30  21  69 N3        30.41R
MacArthur/ISP  CLEAR     25  21  85 N3        30.40R
Shirley        CLEAR     22  20  92 CALM      30.41R
Westhampton    CLEAR     16  12  84 CALM      30.42R
Southampton    NOT AVBL
Bridgehampton  NOT AVBL
East Hampton     N/A     19  16  91 CALM      30.39S
Montauk          N/A     33  19  56 CALM      30.40S
$$

NYZ052-065-067-160500-
HUDSON VALLEY

CITY           SKY/WX    TMP DP  RH WIND       PRES   REMARKS
White Plains   CLEAR     26  18  71 NW8       30.38S WCI  18
Newburgh       CLEAR     21  19  93 CALM      30.41R
Montgomery     CLEAR     22  17  81 CALM      30.39R
Poughkeepsie   CLEAR     20  17  88 CALM      30.41R
Albany         CLEAR     24  14  65 CALM      30.42S
$$

NJZ001-105-106-008-010-013-015-019>022-104-160500-
NEW JERSEY

CITY           SKY/WX    TMP DP  RH WIND       PRES   REMARKS
Newark/Liberty CLEAR     32  20  61 NW5       30.42R WCI  27
Teterboro      CLEAR     30  21  69 CALM      30.42R
Caldwell       CLEAR     24  19  81 S3        30.42R
Somerville     CLEAR     21  17  84 CALM      30.41R
Linden           N/A     29  20  68 CALM      30.43R
Sussex         CLEAR     19  15  84 CALM      30.40S
Andover          N/A     18  15  88 CALM      30.40S
Trenton        CLOUDY    27  19  72 NW5       30.42R WCI  22
Millville      CLOUDY    30  27  88 CALM      30.42F
Atlantic City  PTCLDY    30  22  72 CALM      30.42S
Wrightstown    CLOUDY    28  20  73 NW7       30.40R WCI  20
Toms River     PTCLDY    23  21  92 CALM      30.43R
Belmar         PTCLDY    27  21  78 W5        30.42S WCI  22
$$

PAZ047>061-062-071-160500-
EASTERN PENNSYLVANIA

CITY           SKY/WX    TMP DP  RH WIND       PRES   REMARKS
Philadelphia   CLOUDY    33  20  58 N12       30.44S WCI  24
Allentown      CLOUDY    22  15  75 CALM      30.42R
Scranton       CLOUDY    20  15  81 E7        30.38S WCI  11
$$

CTZ002-004>006-009-010-012-RIZ004-006-007-MAZ004-011-015-160500-
SOUTHERN NEW ENGLAND
 IN CT

CITY           SKY/WX    TMP DP  RH WIND       PRES   REMARKS
Bradley INTL   CLEAR     24  15  68 NE5       30.40R WCI  18
Hartford       CLEAR     23  19  85 CALM      30.42R
Danbury        CLEAR     19  17  92 CALM      30.41R
Wtrbury/Oxford CLEAR     25  12  58 CALM      30.39R
Bridgeport     CLEAR     26  18  71 CALM      30.42R
Meriden        CLEAR     22  17  81 CALM      30.41R
New Haven      CLEAR     22  15  75 CALM      30.41R
Chester          N/A     28  14  54 NW3       30.39R
Groton         CLEAR     21  17  84 N3        30.40R
Wilimantic     CLEAR     22  17  81 CALM      30.41R

 IN RI

CITY           SKY/WX    TMP DP  RH WIND       PRES   REMARKS
Providence     CLEAR     25  17  72 CALM      30.41R
Block Island   NOT AVBL
Westerly       CLEAR     22  16  78 N5        30.40S WCI  16
 IN MA

CITY           SKY/WX    TMP DP  RH WIND       PRES   REMARKS
Boston         CLEAR     28  11  48 N6        30.42R WCI  22
Worcester      CLEAR     26  11  52 E3        30.35R
Westfield      CLEAR     19  16  88 N3        30.39R
Provincetown   CLEAR     33  18  53 N9        30.40S WCI  25
Nantucket      CLEAR     27  16  63 N3        30.39F
$$

ANZ330-335-338-340-345-350-353-355-160500-
COASTAL MARINE OBSERVATIONS


STATION/POSITION TIME  SKY/WX   TEMP    WIND        PRES    VSBY  WAVE
                                AIR SEA DIR/SP/G                  HT/PER
                 (UTC)          (F)     (DEG/KT/KT) (MB)    (MI)  (FT/S)
NY HARB ENTRANCE 0250            38 44  330/  6/  8 1029.4          1/11
20 S FIRE ISLAND 0250            38 45  340/  4/  8 1029.2          1/11
GREAT SOUTH BAY  NOT AVBL
23 SSW MONTAUK P 0250            39 47  340/  6/ 10 1029.4          2/11
15 E BARNEGAT LI 0330               45                N/A           2/11
HUDSON CANYON    0250            41 53              1029.2          2/11
KINGS POINT      0336            34 38              1029.8
EXECUTION ROCKS  0345            34     330/  4/  6   N/A
CENTRAL LI SOUND 0330            36      20/ 12/ 14   N/A           0
EASTERN LI SOUND NOT AVBL
ROBBINS REEF     0348            33     330/  7/  8 1030.3
$$


>>>>>>>>>>>>>>>>>>>>>>>>>>>> KEY <<<<<<<<<<<<<<<<<<<<<<<<<<<
>                                                          <
>     SKY/WX - Sky Condition/Present Weather               <
>     TMP    - Temperature in Fahrenheit                   <
>     DP     - Dew Point in Fahrenheit                     <
>     RH     - Relative Humidity in Percent                <
>     WIND   - Direction (from) and Speed in MPH           <
>     PRES   - Mean Sea Level Pressure (inches of Hg)      <
>     WCI    - Wind Chill Index                            <
>     VSB    - VISIBILITY IN MILES                         <
>     HX     - HEAT INDEX                                  <
>     TC     - TEMPERATURE IN CELSIUS                      <
>     VRB    - VARIABLE WIND DIRECTION                     <
>                                                          <
>>>>>>>>>>>>>>>>>>>>>>>>>>>> KEY <<<<<<<<<<<<<<<<<<<<<<<<<<<




USA.gov is the U.S. government's official web portal to all federal, state and local government web resources and services.